Time,TemperatureF,DewpointF,PressureIn,WindDirection,WindDirectionDegrees,WindSpeedMPH,WindSpeedGustMPH,Humidity,HourlyPrecipIn,Conditions,Clouds,dailyrainin,SoftwareType,DateUTC
2013-01-31 08:02:00,21.0,15.0,29.94,North,-999,-999.0,-999.0,76,-99.99,,,-99.99,,2013-01-31 14:02:00,
2013-01-31 08:11:00,21.0,15.0,29.94,North,-999,-999.0,-999.0,77,-99.99,,,-99.99,,2013-01-31 14:11:00,
2013-01-31 08:22:00,21.0,15.0,29.94,North,-999,-999.0,-999.0,77,-99.99,,,-99.99,,2013-01-31 14:22:00,
2013-01-31 08:32:00,22.0,16.0,29.94,North,-999,-999.0,-999.0,77,-99.99,,,-99.99,,2013-01-31 14:32:00,
2013-01-31 08:42:00,24.0,16.0,29.94,North,-999,-999.0,-999.0,74,-99.99,,,-99.99,,2013-01-31 14:42:00,
2013-01-31 08:52:00,24.0,16.0,29.94,North,-999,-999.0,-999.0,74,-99.99,,,-99.99,,2013-01-31 14:52:00,
2013-01-31 09:03:00,27.0,18.0,29.96,North,-999,-999.0,-999.0,69,-99.99,,,-99.99,,2013-01-31 15:03:00,
2013-01-31 09:12:00,28.0,18.0,29.96,North,-999,-999.0,-999.0,67,-99.99,,,-99.99,,2013-01-31 15:12:00,
2013-01-31 09:22:00,28.0,18.0,29.96,North,-999,-999.0,-999.0,67,-99.99,,,-99.99,,2013-01-31 15:22:00,
2013-01-31 09:32:00,28.0,20.0,29.99,North,-999,-999.0,-999.0,69,-99.99,,,-99.99,,2013-01-31 15:32:00,
2013-01-31 09:42:00,30.0,19.0,30.00,North,-999,-999.0,-999.0,64,-99.99,,,-99.99,,2013-01-31 15:42:00,
2013-01-31 09:51:00,30.0,19.0,30.00,North,-999,-999.0,-999.0,64,-99.99,,,-99.99,,2013-01-31 15:51:00,
2013-01-31 10:03:00,32.0,20.0,30.00,North,-999,-999.0,-999.0,62,-99.99,,,-99.99,,2013-01-31 16:03:00,
2013-01-31 10:12:00,32.0,21.0,30.01,North,-999,-999.0,-999.0,63,-99.99,,,-99.99,,2013-01-31 16:12:00,
2013-01-31 10:22:00,32.0,21.0,30.01,North,-999,-999.0,-999.0,63,-99.99,,,-99.99,,2013-01-31 16:22:00,
2013-01-31 10:33:00,34.0,21.0,30.00,North,-999,-999.0,-999.0,60,-99.99,,,-99.99,,2013-01-31 16:33:00,
2013-01-31 10:42:00,34.0,21.0,30.01,North,-999,-999.0,-999.0,58,-99.99,,,-99.99,,2013-01-31 16:42:00,
2013-01-31 10:50:00,35.0,21.0,30.02,North,-999,-999.0,-999.0,58,-99.99,,,-99.99,,2013-01-31 16:50:00,
2013-01-31 10:52:00,34.0,21.0,30.01,North,-999,-999.0,-999.0,58,-99.99,,,-99.99,,2013-01-31 16:52:00,
2013-01-31 11:02:00,35.0,21.0,30.01,North,-999,-999.0,-999.0,56,-99.99,,,-99.99,,2013-01-31 17:02:00,
2013-01-31 11:12:00,35.0,21.0,30.02,North,-999,-999.0,-999.0,55,-99.99,,,-99.99,,2013-01-31 17:12:00,
2013-01-31 11:23:00,35.0,21.0,30.02,North,-999,-999.0,-999.0,55,-99.99,,,-99.99,,2013-01-31 17:23:00,
2013-01-31 11:32:00,35.0,21.0,30.02,North,-999,-999.0,-999.0,58,-99.99,,,-99.99,,2013-01-31 17:32:00,
2013-01-31 11:43:00,35.0,21.0,30.02,North,-999,-999.0,-999.0,58,-99.99,,,-99.99,,2013-01-31 17:43:00,
2013-01-31 12:03:00,34.0,21.0,30.03,North,-999,-999.0,-999.0,58,-99.99,,,-99.99,,2013-01-31 18:03:00,
2013-01-31 12:12:00,34.0,21.0,30.03,North,-999,-999.0,-999.0,58,-99.99,,,-99.99,,2013-01-31 18:12:00,
2013-01-31 12:22:00,34.0,21.0,30.03,North,-999,-999.0,-999.0,58,-99.99,,,-99.99,,2013-01-31 18:22:00,
2013-01-31 12:32:00,35.0,22.0,30.03,North,-999,-999.0,-999.0,58,-99.99,,,-99.99,,2013-01-31 18:32:00,
2013-01-31 12:43:00,35.0,22.0,30.03,North,-999,-999.0,-999.0,58,-99.99,,,-99.99,,2013-01-31 18:43:00,
2013-01-31 12:52:00,35.0,22.0,30.03,North,-999,-999.0,-999.0,58,-99.99,,,-99.99,,2013-01-31 18:52:00,
2013-01-31 13:02:00,36.0,23.0,30.05,North,-999,-999.0,-999.0,59,-99.99,,,-99.99,,2013-01-31 19:02:00,
2013-01-31 13:12:00,36.0,22.0,30.05,North,-999,-999.0,-999.0,57,-99.99,,,-99.99,,2013-01-31 19:12:00,
2013-01-31 13:22:00,36.0,22.0,30.05,North,-999,-999.0,-999.0,57,-99.99,,,-99.99,,2013-01-31 19:22:00,
2013-01-31 13:32:00,35.0,21.0,30.06,North,-999,-999.0,-999.0,56,-99.99,,,-99.99,,2013-01-31 19:32:00,
2013-01-31 13:42:00,35.0,21.0,30.06,North,-999,-999.0,-999.0,56,-99.99,,,-99.99,,2013-01-31 19:42:00,
2013-01-31 13:52:00,35.0,21.0,30.06,North,-999,-999.0,-999.0,56,-99.99,,,-99.99,,2013-01-31 19:52:00,
2013-01-31 14:02:00,32.0,24.0,30.07,North,-999,-999.0,-999.0,71,-99.99,,,-99.99,,2013-01-31 20:02:00,
2013-01-31 14:11:00,31.0,24.0,30.07,North,-999,-999.0,-999.0,77,-99.99,,,-99.99,,2013-01-31 20:11:00,
2013-01-31 14:22:00,31.0,24.0,30.07,North,-999,-999.0,-999.0,77,-99.99,,,-99.99,,2013-01-31 20:22:00,
2013-01-31 14:31:00,29.0,24.0,30.08,North,-999,-999.0,-999.0,81,-99.99,,,-99.99,,2013-01-31 20:31:00,
2013-01-31 14:42:00,29.0,23.0,30.09,North,-999,-999.0,-999.0,80,-99.99,,,-99.99,,2013-01-31 20:42:00,
2013-01-31 14:52:00,29.0,23.0,30.09,North,-999,-999.0,-999.0,80,-99.99,,,-99.99,,2013-01-31 20:52:00,
2013-01-31 15:02:00,28.0,23.0,30.10,North,-999,-999.0,-999.0,81,-99.99,,,-99.99,,2013-01-31 21:02:00,
2013-01-31 15:12:00,28.0,23.0,30.10,North,-999,-999.0,-999.0,81,-99.99,,,-99.99,,2013-01-31 21:12:00,
2013-01-31 15:22:00,28.0,23.0,30.10,North,-999,-999.0,-999.0,81,-99.99,,,-99.99,,2013-01-31 21:22:00,
2013-01-31 15:32:00,27.0,22.0,30.11,North,-999,-999.0,-999.0,80,-99.99,,,-99.99,,2013-01-31 21:32:00,
2013-01-31 15:42:00,26.0,21.0,30.12,North,-999,-999.0,-999.0,79,-99.99,,,-99.99,,2013-01-31 21:42:00,
2013-01-31 15:52:00,26.0,21.0,30.12,North,-999,-999.0,-999.0,79,-99.99,,,-99.99,,2013-01-31 21:52:00,
2013-01-31 16:03:00,26.0,19.0,30.12,North,-999,-999.0,-999.0,77,-99.99,,,-99.99,,2013-01-31 22:03:00,
2013-01-31 16:11:00,25.0,20.0,30.12,North,-999,-999.0,-999.0,79,-99.99,,,-99.99,,2013-01-31 22:11:00,
2013-01-31 16:22:00,25.0,20.0,30.12,North,-999,-999.0,-999.0,79,-99.99,,,-99.99,,2013-01-31 22:22:00,
2013-01-31 16:33:00,25.0,19.0,30.13,North,-999,-999.0,-999.0,77,-99.99,,,-99.99,,2013-01-31 22:33:00,
2013-01-31 16:42:00,25.0,17.0,30.13,North,-999,-999.0,-999.0,71,-99.99,,,-99.99,,2013-01-31 22:42:00,
2013-01-31 16:51:00,25.0,17.0,30.13,North,-999,-999.0,-999.0,71,-99.99,,,-99.99,,2013-01-31 22:51:00,
2013-01-31 17:02:00,24.0,13.0,30.14,North,-999,-999.0,-999.0,63,-99.99,,,-99.99,,2013-01-31 23:02:00,
2013-01-31 17:12:00,24.0,13.0,30.14,North,-999,-999.0,-999.0,63,-99.99,,,-99.99,,2013-01-31 23:12:00,
2013-01-31 17:22:00,24.0,13.0,30.14,North,-999,-999.0,-999.0,63,-99.99,,,-99.99,,2013-01-31 23:22:00,
2013-01-31 17:30:00,21.0,9.0,30.18,North,-999,-999.0,-999.0,57,-99.99,,,-99.99,,2013-01-31 23:30:00,
2013-01-31 17:32:00,24.0,13.0,30.15,North,-999,-999.0,-999.0,63,-99.99,,,-99.99,,2013-01-31 23:32:00,
2013-01-31 17:42:00,23.0,11.0,30.15,North,-999,-999.0,-999.0,60,-99.99,,,-99.99,,2013-01-31 23:42:00,
2013-01-31 17:52:00,23.0,11.0,30.15,North,-999,-999.0,-999.0,60,-99.99,,,-99.99,,2013-01-31 23:52:00,
2013-01-31 18:01:00,22.0,8.0,30.17,North,-999,-999.0,-999.0,56,-99.99,,,-99.99,,2013-02-01 00:01:00,
2013-01-31 18:11:00,21.0,9.0,30.18,North,-999,-999.0,-999.0,57,-99.99,,,-99.99,,2013-02-01 00:11:00,
2013-01-31 18:22:00,21.0,9.0,30.18,North,-999,-999.0,-999.0,57,-99.99,,,-99.99,,2013-02-01 00:22:00,
2013-01-31 18:42:00,20.0,7.0,30.21,North,-999,-999.0,-999.0,56,-99.99,,,-99.99,,2013-02-01 00:42:00,
2013-01-31 18:52:00,20.0,6.0,30.22,North,-999,-999.0,-999.0,56,-99.99,,,-99.99,,2013-02-01 00:52:00,
2013-01-31 19:01:00,20.0,6.0,30.22,North,-999,-999.0,-999.0,56,-99.99,,,-99.99,,2013-02-01 01:01:00,
2013-01-31 19:11:00,19.0,6.0,30.22,North,-999,-999.0,-999.0,56,-99.99,,,-99.99,,2013-02-01 01:11:00,
2013-01-31 19:21:00,19.0,6.0,30.22,North,-999,-999.0,-999.0,56,-99.99,,,-99.99,,2013-02-01 01:21:00,
2013-01-31 19:32:00,19.0,5.0,30.23,North,-999,-999.0,-999.0,55,-99.99,,,-99.99,,2013-02-01 01:32:00,
2013-01-31 19:42:00,19.0,6.0,30.24,North,-999,-999.0,-999.0,56,-99.99,,,-99.99,,2013-02-01 01:42:00,
2013-01-31 19:52:00,19.0,6.0,30.24,North,-999,-999.0,-999.0,56,-99.99,,,-99.99,,2013-02-01 01:52:00,
2013-01-31 20:02:00,18.0,5.0,30.24,North,-999,-999.0,-999.0,56,-99.99,,,-99.99,,2013-02-01 02:02:00,
2013-01-31 20:11:00,18.0,5.0,30.26,North,-999,-999.0,-999.0,56,-99.99,,,-99.99,,2013-02-01 02:11:00,
2013-01-31 20:21:00,18.0,5.0,30.26,North,-999,-999.0,-999.0,56,-99.99,,,-99.99,,2013-02-01 02:21:00,
2013-01-31 20:32:00,18.0,5.0,30.26,North,-999,-999.0,-999.0,57,-99.99,,,-99.99,,2013-02-01 02:32:00,
2013-01-31 20:42:00,18.0,5.0,30.27,North,-999,-999.0,-999.0,56,-99.99,,,-99.99,,2013-02-01 02:42:00,
2013-01-31 20:52:00,17.0,3.0,30.29,North,-999,-999.0,-999.0,53,-99.99,,,-99.99,,2013-02-01 02:52:00,
2013-01-31 21:02:00,17.0,3.0,30.29,North,-999,-999.0,-999.0,53,-99.99,,,-99.99,,2013-02-01 03:02:00,
2013-01-31 21:12:00,17.0,3.0,30.30,North,-999,-999.0,-999.0,54,-99.99,,,-99.99,,2013-02-01 03:12:00,
2013-01-31 21:21:00,17.0,3.0,30.30,North,-999,-999.0,-999.0,54,-99.99,,,-99.99,,2013-02-01 03:21:00,
2013-01-31 21:32:00,16.0,2.0,30.31,North,-999,-999.0,-999.0,54,-99.99,,,-99.99,,2013-02-01 03:32:00,
2013-01-31 21:42:00,16.0,2.0,30.32,North,-999,-999.0,-999.0,54,-99.99,,,-99.99,,2013-02-01 03:42:00,
2013-01-31 21:51:00,16.0,2.0,30.32,North,-999,-999.0,-999.0,54,-99.99,,,-99.99,,2013-02-01 03:51:00,
2013-01-31 22:02:00,15.0,-1.0,30.33,North,-999,-999.0,-999.0,50,-99.99,,,-99.99,,2013-02-01 04:02:00,
2013-01-31 22:11:00,14.0,0.0,30.34,North,-999,-999.0,-999.0,52,-99.99,,,-99.99,,2013-02-01 04:11:00,
2013-01-31 22:21:00,14.0,0.0,30.34,North,-999,-999.0,-999.0,52,-99.99,,,-99.99,,2013-02-01 04:21:00,
2013-01-31 22:32:00,13.0,-1.0,30.35,North,-999,-999.0,-999.0,53,-99.99,,,-99.99,,2013-02-01 04:32:00,
2013-01-31 22:41:00,13.0,0.0,30.35,North,-999,-999.0,-999.0,55,-99.99,,,-99.99,,2013-02-01 04:41:00,
2013-01-31 22:51:00,13.0,0.0,30.35,North,-999,-999.0,-999.0,55,-99.99,,,-99.99,,2013-02-01 04:51:00,
2013-01-31 23:03:00,12.0,0.0,30.35,North,-999,-999.0,-999.0,57,-99.99,,,-99.99,,2013-02-01 05:03:00,
2013-01-31 23:12:00,11.0,0.0,30.37,North,-999,-999.0,-999.0,58,-99.99,,,-99.99,,2013-02-01 05:12:00,
2013-01-31 23:22:00,11.0,0.0,30.37,North,-999,-999.0,-999.0,58,-99.99,,,-99.99,,2013-02-01 05:22:00,
2013-01-31 23:32:00,11.0,-1.0,30.37,North,-999,-999.0,-999.0,57,-99.99,,,-99.99,,2013-02-01 05:32:00,
2013-01-31 23:42:00,11.0,-1.0,30.37,North,-999,-999.0,-999.0,57,-99.99,,,-99.99,,2013-02-01 05:42:00,
2013-01-31 23:52:00,11.0,-1.0,30.37,North,-999,-999.0,-999.0,57,-99.99,,,-99.99,,2013-02-01 05:52:00,